TimeIST,TemperatureF,Dew PointF,Humidity,Sea Level PressureIn,VisibilityMPH,Wind Direction,Wind SpeedMPH,Gust SpeedMPH,PrecipitationIn,Events,Conditions,WindDirDegrees,DateUTC
12:00 AM,60.8,42.8,52,29.95,1.6,Calm,Calm,-,N/A,,Smoke,0,2012-11-28 18:30:00
2:00 AM,57.2,44.6,63,29.92,1.6,Calm,Calm,-,N/A,,Smoke,0,2012-11-28 20:30:00
2:30 AM,59,47,53,29.90,1,Calm,Calm,,,,Smoke,,2012-11-28 21:00:00
2:30 AM,59.0,46.4,63,29.92,1.6,Calm,Calm,-,N/A,,Smoke,0,2012-11-28 21:00:00
3:00 AM,59.0,46.4,63,29.92,1.6,Calm,Calm,-,N/A,,Smoke,0,2012-11-28 21:30:00
4:00 AM,57.2,46.4,67,29.92,1.6,Calm,Calm,-,N/A,,Smoke,0,2012-11-28 22:30:00
5:00 AM,55.4,46.4,72,29.92,1.6,Calm,Calm,-,N/A,,Smoke,0,2012-11-28 23:30:00
5:30 AM,56,46,61,29.90,1,Calm,Calm,,,,Smoke,,2012-11-29 00:00:00
5:30 AM,55.4,48.2,77,29.92,1.2,Calm,Calm,-,N/A,,Smoke,0,2012-11-29 00:00:00
6:00 AM,55.4,46.4,72,29.92,1.2,Calm,Calm,-,N/A,,Smoke,0,2012-11-29 00:30:00
7:00 AM,55.4,48.2,77,29.95,1.1,Calm,Calm,-,N/A,,Smoke,0,2012-11-29 01:30:00
8:00 AM,59.0,48.2,67,29.95,1.1,Calm,Calm,-,N/A,,Smoke,0,2012-11-29 02:30:00
8:30 AM,62,51,58,29.93,1,Calm,Calm,,,,Smoke,,2012-11-29 03:00:00
9:00 AM,69.8,48.2,46,29.95,1.2,Calm,Calm,-,N/A,,Smoke,0,2012-11-29 03:30:00
11:00 AM,73.4,48.2,41,29.98,1.9,SW,6.9,-,N/A,,Haze,230,2012-11-29 05:30:00
12:00 PM,77.0,48.2,36,29.95,2.5,SW,6.9,-,N/A,,Haze,220,2012-11-29 06:30:00
1:00 PM,78.8,44.6,30,29.92,2.5,WSW,9.2,-,N/A,,Haze,250,2012-11-29 07:30:00
2:00 PM,78.8,42.8,28,29.89,2.5,WSW,8.1,-,N/A,,Haze,250,2012-11-29 08:30:00
2:30 PM,82,46,18,29.80,2,SW,6.9,,,,Haze,230,2012-11-29 09:00:00
3:00 PM,80.6,42.8,26,29.86,2.5,WSW,6.9,-,N/A,,Haze,240,2012-11-29 09:30:00
4:00 PM,80.6,44.6,28,29.86,2.5,SW,5.8,-,N/A,,Haze,230,2012-11-29 10:30:00
5:00 PM,78.8,42.8,28,29.86,2.5,SW,4.6,-,N/A,,Haze,230,2012-11-29 11:30:00
5:30 PM,76,48,26,29.82,2,SW,2.3,,,,Haze,230,2012-11-29 12:00:00
6:00 PM,73.4,44.6,36,29.89,2.5,Calm,Calm,-,N/A,,Haze,0,2012-11-29 12:30:00
8:00 PM,73.4,44.6,36,29.92,1.2,Calm,Calm,-,N/A,,Smoke,0,2012-11-29 14:30:00
8:30 PM,72,52,38,29.88,1,NNW,4.6,,,,Smoke,340,2012-11-29 15:00:00
9:00 PM,71.6,51.8,50,29.95,1.2,Variable,5.8,-,N/A,,Smoke,0,2012-11-29 15:30:00
10:00 PM,71.6,48.2,43,29.95,1.2,Variable,9.2,-,N/A,,Smoke,0,2012-11-29 16:30:00
11:00 PM,69.8,48.2,46,29.95,1.6,Variable,6.9,-,N/A,,Smoke,0,2012-11-29 17:30:00